[[{"header":{"parameterUnit":"m.s-1","parameterCategory":1,"la1":30.2992,"la2":30.254,"lo1":-89.0895,"lo2":-89.0443,"dy":0.0025,"dx":0.0025,"nx":19,"ny":19,"refTime":"2026-03-16T21:00:00:Z","depth":0,"parameterNumber":2,"parameterNumberName":"U-component_of_WINDS"},"data":[0,0,0,-2.6927,-2.6928,-2.6955,-2.6955,-2.7015,-2.7016,0,0,0,0,0,0,0,0,0,0,0,-2.6933,-2.6934,-2.6927,-2.6928,-2.6955,-2.6955,-2.7015,-2.7016,0,0,0,0,0,0,0,0,0,0,0,-2.6933,-2.6934,-2.6935,-2.6928,-2.6955,-2.6955,-2.7015,-2.6986,0,0,0,0,0,0,0,0,0,0,-2.6955,-2.6974,-2.6934,-2.6935,-2.6928,-2.6955,-2.6955,-2.6984,-2.6987,-2.7013,0,-2.7039,0,-2.7029,-2.7021,-2.7022,0,0,0,-2.6917,-2.6971,-2.6966,-2.6935,-2.6929,-2.6955,-2.694,-2.6985,-2.699,-2.7018,-2.704,-2.7042,-2.703,-2.7022,-2.7022,-2.7206,-2.7208,0,0,-2.6916,-2.6946,-2.6963,-2.6969,-2.6966,-2.6939,-2.6941,-2.6988,-2.7013,-2.704,-2.7043,-2.7031,-2.7023,-2.7023,-2.7205,-2.7207,0,0,0,-2.6919,-2.6945,-2.6938,-2.6967,-2.697,-2.694,-2.6942,-2.7011,-2.7006,-2.7043,-2.7032,-2.7023,-2.7024,-2.7203,-2.7206,-2.7301,0,0,0,-2.6917,-2.6947,-2.6938,-2.6956,-2.697,-2.6991,-2.6966,-2.7003,-2.7008,-2.7031,-2.7023,-2.7025,-2.7202,-2.7205,-2.7295,-2.7341,0,0,0,-2.6926,-2.6947,-2.6956,-2.6958,-2.6971,-2.6989,-2.6987,-2.7003,-2.7001,-2.7022,-2.7025,-2.7201,-2.7204,-2.729,-2.7332,-2.7399,0,0,0,-2.6945,-2.7041,-2.6958,-2.7061,-2.6971,-2.7049,-2.6986,-2.7043,-2.7072,-2.7023,-2.7202,-2.7205,-2.7288,-2.7327,-2.7393,-2.7459,-2.749,0,0,-2.7082,-2.7058,-2.7117,-2.7044,-2.7144,-2.7042,-2.7156,-2.7155,-2.713,-2.7182,-2.7186,-2.7297,-2.7332,-2.7397,-2.765,-2.7675,0,0,0,-2.717,-2.7213,-2.7233,-2.7262,-2.7263,-2.7269,-2.7246,-2.7246,-2.729,-2.7163,-2.7338,-2.7358,-2.7395,-2.7425,-2.7446,-2.7476,-2.7221,-2.722,-2.722,-2.7407,-2.737,-2.7464,-2.7431,-2.7461,-2.7438,-2.7459,-2.7455,-2.7408,-2.7451,-2.7466,-2.7624,-2.766,-2.7676,-2.7708,-2.7498,-2.7499,-2.7499,-2.7499,-2.7605,-2.7659,-2.7597,-2.7665,-2.7627,-2.7684,-2.7667,-2.7633,-2.7682,-2.7609,-2.764,-2.7563,-2.7704,-2.773,-2.7506,-2.7505,-2.7504,-2.7503,-2.7503,-2.7755,-2.7775,-2.7773,-2.7813,-2.7848,-2.7812,-2.7862,-2.7824,-2.779,-2.7821,-2.7833,-2.7831,-2.7825,-2.7829,-2.783,-2.783,-2.7831,-2.7831,-2.7832,-2.7911,-2.7907,-2.7953,-2.7964,-2.7979,-2.7994,-2.7974,-2.7987,-2.7993,-2.7962,-2.7962,-2.7913,-2.7724,-2.7677,-2.784,-2.7839,-2.7837,-2.7837,-2.7836,-2.8124,-2.8071,-2.8143,-2.8158,-2.8168,-2.8207,-2.8159,-2.8191,-2.8197,-2.8223,-2.8168,-2.8035,-2.8007,-2.799,-2.7951,-2.8175,-2.8175,-2.8175,-2.8175,-2.8251,-2.8234,-2.83,-2.8326,-2.8348,-2.8313,-2.8397,-2.8384,-2.8361,-2.8363,-2.8325,-2.8271,-2.8256,-2.8237,-2.8215,-2.8178,-2.8454,-2.8455,-2.8455,-2.838,-2.8364,-2.8441,-2.8419,-2.8425,-2.8432,-2.851,-2.8544,-2.8507,-2.8465,-2.8364,-2.8352,-2.8263,-2.8236,-2.8191,-2.8158,-2.8089,0,0]},{"header":{"parameterUnit":"m.s-1","parameterCategory":1,"la1":30.2992,"la2":30.254,"lo1":-89.0895,"lo2":-89.0443,"dy":0.0025,"dx":0.0025,"nx":19,"ny":19,"refTime":"2026-03-16T21:00:00:Z","depth":0,"parameterNumber":3,"parameterNumberName":"V-component_of_WINDS"},"data":[0,0,0,2.3143,2.3142,2.3078,2.3078,2.2994,2.2994,0,0,0,0,0,0,0,0,0,0,0,2.3163,2.3163,2.3143,2.3141,2.3078,2.3078,2.2994,2.2994,0,0,0,0,0,0,0,0,0,0,0,2.3163,2.3163,2.3162,2.3141,2.3078,2.3078,2.2995,2.3043,0,0,0,0,0,0,0,0,0,0,2.3104,2.3125,2.3163,2.3162,2.3141,2.3078,2.3078,2.3045,2.304,2.3023,0,2.3011,0,2.3001,2.2988,2.2988,0,0,0,2.3139,2.3129,2.3112,2.3162,2.314,2.3078,2.3106,2.3042,2.3036,2.3016,2.301,2.3007,2.3,2.2988,2.2987,2.2905,2.2905,0,0,2.3143,2.3151,2.3116,2.3108,2.3121,2.3108,2.3104,2.3038,2.3031,2.301,2.3005,2.2999,2.2987,2.2986,2.2906,2.2905,0,0,0,2.3154,2.3154,2.3138,2.3111,2.31,2.3106,2.3102,2.3034,2.3028,2.3004,2.2998,2.2987,2.2986,2.2906,2.2905,2.29,0,0,0,2.3156,2.3161,2.3139,2.3144,2.3102,2.3067,2.3099,2.3033,2.3025,2.2998,2.2986,2.2985,2.2906,2.2906,2.2901,2.2895,0,0,0,2.3166,2.3162,2.3154,2.3144,2.3118,2.3068,2.3058,2.3031,2.3021,2.2988,2.2985,2.2906,2.2906,2.2902,2.2896,2.2876,0,0,0,2.3179,2.3148,2.3154,2.3116,2.3118,2.3066,2.3058,2.3018,2.2989,2.2986,2.2906,2.2906,2.2902,2.2897,2.2877,2.286,2.2855,0,0,2.3144,2.3144,2.3121,2.3125,2.3074,2.3075,2.3023,2.2986,2.2974,2.2928,2.2926,2.2901,2.2897,2.2876,2.2821,2.2817,0,0,0,2.3113,2.3097,2.3082,2.3056,2.303,2.3006,2.2978,2.2964,2.2926,2.2953,2.2888,2.2885,2.2873,2.2865,2.2861,2.2849,2.2902,2.2902,2.2903,2.3074,2.3063,2.3025,2.3006,2.2981,2.2954,2.2931,2.2908,2.2901,2.2887,2.2872,2.2841,2.2831,2.2828,2.2816,2.2864,2.2864,2.2864,2.2864,2.3021,2.2996,2.2992,2.2953,2.2941,2.2907,2.2879,2.2876,2.2841,2.285,2.2838,2.2848,2.2824,2.2812,2.2863,2.2863,2.2863,2.2863,2.2863,2.2993,2.298,2.2967,2.2929,2.2901,2.2883,2.2851,2.284,2.2829,2.2818,2.2801,2.2801,2.2799,2.2811,2.2811,2.2811,2.2811,2.2811,2.2811,2.2969,2.2955,2.2931,2.2902,2.2885,2.286,2.2833,2.2815,2.2792,2.2786,2.2786,2.278,2.2824,2.2835,2.2809,2.2809,2.281,2.281,2.281,2.2917,2.2928,2.2891,2.2874,2.2839,2.2812,2.28,2.2764,2.2747,2.2732,2.2729,2.2765,2.2762,2.2765,2.2774,2.2733,2.2733,2.2733,2.2733,2.2893,2.2892,2.2852,2.2826,2.2799,2.2785,2.2741,2.2719,2.2698,2.2687,2.2691,2.2703,2.2706,2.2701,2.2706,2.2713,2.2659,2.2658,2.2658,2.286,2.2857,2.2822,2.2805,2.2778,2.2754,2.2712,2.268,2.2658,2.2655,2.2677,2.268,2.2698,2.2705,2.27,2.2707,2.2721,0,0]}]]